COSMOS 886 DEB, 9654

Orbit data source: Space-Track

COSMOS 886 DEB, 9654 is space debris in LEO originally from a launch on Mon, 27 Dec 1976 UTC launched from the Tyuratam Missile And Space Complex (TTMTR). Debris objects in space refer to the collection of defunct objects orbiting the Earth. Examples of debris include non-operational satellites, rocket bodies, and fragments generated from explosions, collisions, or faulty payload assembly.

Loading next visibility...
Identifier
9654, 1976-126L
Orbit
LEO
Country
Flag of CISCIS
Related business
Manufacturer
Unknown
Mission
Spacecraft
Bus & Motor
Unknown
Mass
Unknown
Launch date (UTC)
1976-12-27 (49 years ago)
Launch vehicle
Unknown
Launch site
Tyuratam Missile And Space Complex (TTMTR)
Object type
Payload
Rocket body
Debris
Shape & HBR
Unknown shape, 0.3 m
Radar Cross Section
Medium (>0.1 m² and <1 m²)

Expand to show TLE details & history
Last TLE update: 9 hours ago

TLE from 9 hours ago
0 COSMOS 886 DEB
1  9654U 76126L   26130.22283169  .00001043  00000-0  42847-3 0  9997
2  9654  65.7673 159.8782 0686893 119.3412 247.8041 13.46682094352381
Epoch: 2026-05-10T05:20Z
TLE epoch observation values (Epoch: 2026-05-10T05:20:52.658Z)
Latitude
-0.00004°
Longitude
-148.37023°
Altitude
1,309.121 km
Speed
7.094 km/s
True Right ascension
10h 39m 30s
True Declination
0° 00' 00"
Sunlit
Object was in daylight at epoch
Visualization orbit readout
Latitude
Unknown
Longitude
Unknown
Altitude
Unknown
Speed
Unknown
Apparent Right ascension
Unknown
Apparent Declination
Unknown
Sunlit
N/A
Visualization observer readout
Local Sidereal Time
22:45:41
Azimuth
Unknown
Elevation
Unknown
Doppler factor
Unknown
Orbital elements
Apogee altitude
1,595.528 km
Perigee altitude
570.524 km
Semi-major axis
7,461.163 km
Eccentricity
0.06869
Inclination
65.7673°
RAAN
159.8782°
Arg. of periapsis
119.3412°
True anomaly
240.76309°
Mean anomaly
247.8041°
Eccentric anomaly
244.25904°
Mean motion
3.3677 °/min
Orbital period
106.9 mins
BSTAR
0.00042847
Loading maneuver chart data...
Computing Atmospheric mass density...
Loading historical data...
Loading historical data...
Loading historical data...
Loading historical data...
Loading historical data...
Loading historical data...
Loading historical data...

Documentation

Showing up to 5 results
|